Date String (YYYY-MM-DD hh:mm:ss) UTC,Instrument flags,Ambient pressure (hPa),Sample flow (lpm),Bypass flow (lpm),Sample temperature (°C),Ambient temperature (°C),ASC tube jacket temperature (°C),LED temperature (°C),Box temperature (°C),Sample RH (%),Span deviation,Mass concentration (μg/m³),Mass concentration (μg/m³),Mass concentration (μg/m³)
DateTimeUTC,F1_M11,P_M11,Q1_M11,Q2_M11,T1_M11,T2_M11,T3_M11,T4_M11,T5_M11,U1_M11,ZSPAN_M11,X0_M11,X2_M11,X1_M11
2023-01-06 19:00:00,,0822.4,5.00,0.00,22.7,21.4,00.0,31.5,24.4,12.3,0000.0,0004.48,0002.28,0001.46
2023-01-06 19:01:00,,0822.4,4.99,0.00,22.7,21.4,00.0,31.5,24.4,12.1,0000.0,0004.35,0002.17,0001.44
2023-01-06 19:02:00,,0822.4,5.00,0.00,22.7,21.4,00.0,31.5,24.5,11.4,0000.0,0004.98,0002.04,0001.42
2023-01-06 19:03:00,,0822.4,4.99,0.00,22.7,21.4,00.0,31.5,24.4,10.7,0000.0,0004.78,0001.96,0001.41
2023-01-06 19:04:00,,0822.4,5.01,0.00,22.7,21.4,00.0,31.5,24.4,10.3,0000.0,0004.57,0001.91,0001.39
2023-01-06 19:05:00,,0822.4,4.99,0.00,22.7,21.4,00.0,31.5,24.5,10.2,0000.0,0004.27,0001.84,0001.38
2023-01-06 19:06:00,,0822.4,5.00,0.00,22.7,21.4,00.0,31.5,24.5,10.1,0000.0,0003.90,0001.69,0001.35
2023-01-06 19:07:00,,0822.3,5.00,0.00,22.7,21.4,00.0,31.5,24.5,10.1,0000.0,0003.78,0001.65,0001.33
2023-01-06 19:08:00,,0822.3,5.01,0.00,22.7,21.4,00.0,31.5,24.5,10.1,0000.0,0003.71,0001.62,0001.31
2023-01-06 19:09:00,,0822.3,5.00,0.00,22.7,21.5,00.0,31.5,24.5,10.0,0000.0,0003.58,0001.55,0001.29
2023-01-06 19:10:00,,0822.3,5.00,0.00,22.7,21.5,00.0,31.5,24.5,10.0,0000.0,0003.46,0001.48,0001.25
2023-01-06 19:11:00,,0822.3,4.99,0.00,22.7,21.5,00.0,31.5,24.5,10.1,0000.0,0003.26,0001.41,0001.21
2023-01-06 19:12:00,,0822.3,5.01,0.00,22.8,21.5,00.0,31.5,24.5,10.3,0000.0,0002.87,0001.34,0001.17
2023-01-06 19:13:00,,0822.3,5.00,0.00,22.8,21.5,00.0,31.5,24.5,10.4,0000.0,0001.75,0001.29,0001.16
2023-01-06 19:14:00,,0822.3,5.00,0.00,22.8,21.5,00.0,31.5,24.5,10.2,0000.0,0001.68,0001.28,0001.15
2023-01-06 19:15:00,,0822.3,5.00,0.00,22.8,21.5,00.0,31.5,24.5,10.3,0000.0,0001.80,0001.29,0001.15
2023-01-06 19:16:00,,0822.3,5.00,0.00,22.8,21.5,00.0,31.5,24.5,10.4,0000.0,0001.80,0001.28,0001.14
2023-01-06 19:17:00,,0822.3,5.00,0.00,22.8,21.5,00.0,31.5,24.5,10.4,0000.0,0001.77,0001.28,0001.15
2023-01-06 19:18:00,,0822.3,4.99,0.00,22.8,21.5,00.0,31.6,24.5,10.4,0000.0,0001.82,0001.29,0001.16
2023-01-06 19:19:00,,0822.2,5.00,0.00,22.8,21.5,00.0,31.6,24.5,10.5,0000.0,0001.98,0001.33,0001.16
2023-01-06 19:20:00,,0822.3,4.99,0.00,22.8,21.5,00.0,31.6,24.5,10.6,0000.0,0001.99,0001.34,0001.18
2023-01-06 19:21:00,,0822.3,5.01,0.00,22.8,21.6,00.0,31.6,24.5,10.5,0000.0,0002.12,0001.35,0001.18
2023-01-06 19:22:00,,0822.3,5.01,0.00,22.8,21.6,00.0,31.6,24.5,10.5,0000.0,0002.17,0001.36,0001.18
2023-01-06 19:23:00,,0822.2,5.00,0.00,22.8,21.6,00.0,31.6,24.5,10.5,0000.0,0002.17,0001.36,0001.18
2023-01-06 19:24:00,,0822.2,5.01,0.00,22.8,21.6,00.0,31.6,24.5,10.7,0000.0,0002.18,0001.36,0001.17
2023-01-06 19:25:00,,0822.2,4.98,0.00,22.8,21.6,00.0,31.6,24.5,10.3,0000.0,0002.15,0001.36,0001.16
2023-01-06 19:26:00,,0822.2,5.01,0.00,22.8,21.6,00.0,31.6,24.5,10.2,0000.0,0002.07,0001.36,0001.15
2023-01-06 19:27:00,,0822.2,5.01,0.00,22.8,21.6,00.0,31.6,24.5,10.1,0000.0,0002.06,0001.35,0001.15
2023-01-06 19:28:00,,0822.2,5.00,0.00,22.9,21.6,00.0,31.6,24.5,10.1,0000.0,0002.13,0001.33,0001.12
2023-01-06 19:29:00,,0822.2,5.01,0.00,22.9,21.7,00.0,31.6,24.6,10.1,0000.0,0002.13,0001.33,0001.10
2023-01-06 19:30:00,,0822.2,4.97,0.00,22.9,21.7,00.0,31.6,24.6,10.2,0000.0,0002.03,0001.31,0001.09
2023-01-06 19:31:00,,0822.2,4.99,0.00,22.9,21.7,00.0,31.6,24.6,10.3,0000.0,0002.00,0001.30,0001.08
2023-01-06 19:32:00,,0822.2,5.01,0.00,22.9,21.7,00.0,31.6,24.6,10.4,0000.0,0001.99,0001.32,0001.08
2023-01-06 19:33:00,,0822.2,5.01,0.00,22.9,21.7,00.0,31.7,24.6,10.4,0000.0,0001.97,0001.31,0001.09
2023-01-06 19:34:00,,0822.2,5.01,0.00,22.9,21.7,00.0,31.7,24.6,10.5,0000.0,0001.98,0001.31,0001.09
2023-01-06 19:35:00,,0822.2,4.99,0.00,22.9,21.8,00.0,31.7,24.6,10.5,0000.0,0001.95,0001.30,0001.09
2023-01-06 19:36:00,,0822.2,5.01,0.00,22.9,21.8,00.0,31.7,24.7,10.3,0000.0,0001.96,0001.30,0001.09
2023-01-06 19:37:00,,0822.2,5.00,0.00,23.0,21.8,00.0,31.7,24.8,10.2,0000.0,0001.99,0001.30,0001.09
2023-01-06 19:38:00,,0822.2,5.00,0.00,23.0,21.8,00.0,31.7,24.9,10.1,0000.0,0002.39,0001.31,0001.08
2023-01-06 19:39:00,,0822.2,4.99,0.00,23.0,21.9,00.0,31.7,24.9,10.1,0000.0,0002.36,0001.30,0001.08
2023-01-06 19:40:00,,0822.2,5.00,0.00,23.0,22.0,00.0,31.7,25.0,10.1,0000.0,0002.35,0001.27,0001.08
2023-01-06 19:41:00,,0822.2,4.99,0.00,23.1,22.0,00.0,31.8,25.0,10.2,0000.0,0002.28,0001.24,0001.08
2023-01-06 19:42:00,,0822.2,5.00,0.00,23.1,22.0,00.0,31.8,25.0,10.2,0000.0,0002.27,0001.23,0001.07
2023-01-06 19:43:00,,0822.2,5.00,0.00,23.1,22.1,00.0,31.8,25.0,10.3,0000.0,0002.21,0001.19,0001.06
2023-01-06 19:44:00,,0822.2,5.01,0.00,23.1,22.1,00.0,31.8,25.0,10.6,0000.0,0002.22,0001.17,0001.05
2023-01-06 19:45:00,,0822.2,5.00,0.00,23.2,22.1,00.0,31.8,25.1,11.0,0000.0,0002.30,0001.17,0001.05
2023-01-06 19:46:00,,0822.2,4.99,0.00,23.2,22.2,00.0,31.8,25.1,10.8,0000.0,0002.35,0001.19,0001.06
2023-01-06 19:47:00,,0822.2,4.99,0.00,23.2,22.2,00.0,31.9,25.1,10.7,0000.0,0002.33,0001.18,0001.06
2023-01-06 19:48:00,,0822.2,5.00,0.00,23.2,22.2,00.0,31.9,25.1,10.7,0000.0,0002.31,0001.18,0001.07
2023-01-06 19:49:00,,0822.2,5.00,0.00,23.2,22.2,00.0,31.9,25.1,10.7,0000.0,0001.93,0001.17,0001.08
2023-01-06 19:50:00,,0822.2,5.00,0.00,23.2,22.2,00.0,31.9,25.1,10.5,0000.0,0001.88,0001.20,0001.10
2023-01-06 19:51:00,,0822.1,5.01,0.00,23.2,22.2,00.0,31.9,25.1,10.3,0000.0,0001.87,0001.21,0001.10
2023-01-06 19:52:00,,0822.1,5.01,0.00,23.3,22.2,00.0,31.9,25.1,10.4,0000.0,0001.96,0001.24,0001.11
2023-01-06 19:53:00,,0822.1,5.00,0.00,23.3,22.2,00.0,32.0,25.1,10.6,0000.0,0002.02,0001.26,0001.12
2023-01-06 19:54:00,,0822.1,5.00,0.00,23.3,22.2,00.0,32.0,25.1,11.1,0000.0,0002.01,0001.31,0001.15
2023-01-06 19:55:00,,0822.1,4.99,0.00,23.3,22.2,00.0,32.0,25.1,11.2,0000.0,0002.14,0001.38,0001.20
2023-01-06 19:56:00,,0822.1,5.00,0.00,23.3,22.3,00.0,32.0,25.1,11.2,0000.0,0002.12,0001.42,0001.23
2023-01-06 19:57:00,,0822.1,5.02,0.00,23.3,22.3,00.0,32.0,25.1,11.1,0000.0,0002.10,0001.42,0001.25
2023-01-06 19:58:00,,0822.1,5.02,0.00,23.3,22.3,00.0,32.0,25.1,11.0,0000.0,0002.12,0001.45,0001.27
2023-01-06 19:59:00,,0822.1,5.01,0.00,23.4,22.3,00.0,32.0,25.1,11.1,0000.0,0002.15,0001.47,0001.30
